FW2248 Vancouver CA current weather conditions

sailwx.info

Wind from 360

Air temperature 16.1° C
Dewpoint 11.1° C

Last reported at 2020-Jul-08 04:01 UTC.
Time now 2020-Jul-08 04:42 UTC

Location: N 49°16' W 123°12'.
View on Google Maps.

See reports from other nearby stations

  
Tides and Currents Weather Stations Pressure Air Temp Water Temp Dewpoint Dewpoint Depression Visibility Wind Speed Wind Dir Waves Ship Positions
date/time (UTC)wind fromknots sea level pressurealtimeterstation pressurevisibilityair tempwater tempwave heightnotes
2020-Jul-08 04:01 360 16.1
2020-Jul-08 03:51 180 16.1
2020-Jul-08 03:41 248 16.1
2020-Jul-08 03:31 225 16.7
2020-Jul-08 03:21 248 16.7
2020-Jul-08 03:11 270 16.7
2020-Jul-08 03:01 014 0 gusting 2 16.7
2020-Jul-08 02:51 007 1 gusting 4 16.7
2020-Jul-08 02:41 347 0 gusting 4 16.7
2020-Jul-08 02:31 333 0 gusting 4 16.7
2020-Jul-08 02:21 006 1 gusting 3 16.7
2020-Jul-08 02:11 316 1 gusting 4 16.7
2020-Jul-08 02:01 347 1 gusting 5 16.1
2020-Jul-08 01:51 340 1 gusting 6 16.7
2020-Jul-08 01:41 337 1 gusting 6 16.7
2020-Jul-08 01:31 353 1 gusting 6 16.7
2020-Jul-08 01:21 344 1 gusting 6 16.7
2020-Jul-08 01:11 324 1 gusting 7 16.7
2020-Jul-08 01:01 002 1 gusting 6 16.7
2020-Jul-08 00:51 143 0 gusting 3 17.2
2020-Jul-08 00:41 174 0 gusting 4 17.2
2020-Jul-08 00:31 187 0 gusting 3 17.2
2020-Jul-08 00:21 257 0 gusting 4 17.2
2020-Jul-08 00:11 255 1 gusting 6 17.2
2020-Jul-08 00:01 178 0 gusting 3 17.2
2020-Jul-07 23:51 243 1 gusting 6 16.7
2020-Jul-07 23:41 273 1 gusting 6 16.7
2020-Jul-07 23:31 268 1 gusting 6 17.2
2020-Jul-07 23:21 272 2 gusting 7 17.2
2020-Jul-07 23:11 253 2 gusting 6 17.2
2020-Jul-07 23:01 183 1 gusting 5 17.8
2020-Jul-07 22:51 250 1 gusting 6 17.8
2020-Jul-07 22:41 181 2 gusting 6 17.8
2020-Jul-07 22:31 179 1 gusting 8 17.8
2020-Jul-07 22:21 246 1 gusting 6 17.8
2020-Jul-07 22:11 210 2 gusting 7 17.2
2020-Jul-07 22:01 161 2 gusting 6 17.2
2020-Jul-07 21:51 239 1 gusting 6 17.2
2020-Jul-07 21:41 208 1 gusting 6 17.2
2020-Jul-07 21:31 189 1 gusting 6 17.2
2020-Jul-07 21:21 283 1 gusting 6 17.8
2020-Jul-07 21:01 331 1 gusting 7 17.2
2020-Jul-07 20:51 151 1 gusting 6 17.8
2020-Jul-07 20:41 153 0 gusting 3 18.3
2020-Jul-07 20:31 126 0 gusting 3 17.8
2020-Jul-07 20:21 156 1 gusting 6 17.8
2020-Jul-07 17:11 110 1 gusting 8 15.6
2020-Jul-07 17:01 167 1 gusting 5 15.6
2020-Jul-07 16:51 078 1 gusting 6 15.6
2020-Jul-07 16:41 092 1 gusting 6 15.6
2020-Jul-07 16:31 111 1 gusting 5 15.6
2020-Jul-07 16:21 144 0 gusting 6 15.0
2020-Jul-07 16:11 094 1 gusting 6 14.4
2020-Jul-07 16:01 114 0 gusting 6 14.4
2020-Jul-07 13:11 129 0 gusting 6 13.3
2020-Jul-07 13:01 185 1 gusting 6 13.3
2020-Jul-07 12:51 104 1 gusting 6 13.3
2020-Jul-07 12:41 128 1 gusting 6 13.3
2020-Jul-07 12:31 131 0 gusting 6 13.3
2020-Jul-07 12:21 152 1 gusting 7 13.3
2020-Jul-07 12:11 130 1 gusting 8 13.3
2020-Jul-07 12:01 174 1 gusting 6 13.3
2020-Jul-07 11:51 130 1 gusting 7 13.3
2020-Jul-07 11:41 160 0 gusting 4 13.9
2020-Jul-07 11:31 138 1 gusting 6 13.9
2020-Jul-07 11:21 200 1 gusting 6 13.9
2020-Jul-07 11:11 174 0 gusting 5 14.4
2020-Jul-07 11:01 134 0 gusting 6 14.4
2020-Jul-07 10:51 100 0 gusting 6 14.4
2020-Jul-07 10:41 178 0 gusting 3 14.4
2020-Jul-07 10:31 115 14.4
2020-Jul-07 10:21 140 0 gusting 2 14.4
2020-Jul-07 10:11 203 14.4
2020-Jul-07 10:01 180 14.4
2020-Jul-07 09:51 180 14.4
2020-Jul-07 09:41 180 14.4
2020-Jul-07 09:31 141 14.4
2020-Jul-07 09:21 186 0 gusting 2 14.4
2020-Jul-07 09:11 176 0 gusting 2 14.4
2020-Jul-07 09:01 131 15.0
2020-Jul-07 08:51 122 15.0
2020-Jul-07 08:41 161 0 gusting 3 15.0
2020-Jul-07 08:31 131 0 gusting 6 15.0
2020-Jul-07 08:21 136 0 gusting 3 15.0
2020-Jul-07 08:11 131 0 gusting 5 15.0
2020-Jul-07 08:01 134 0 gusting 5 15.0
2020-Jul-07 07:51 165 0 gusting 6 15.0
2020-Jul-07 07:41 112 0 gusting 3 15.0
2020-Jul-07 07:31 116 15.0
2020-Jul-07 07:21 170 0 gusting 5 15.0
2020-Jul-07 07:11 140 0 gusting 5 15.0
2020-Jul-07 07:01 139 0 gusting 4 15.6
2020-Jul-07 06:51 171 15.6
2020-Jul-07 06:41 150 15.6
2020-Jul-07 06:31 164 15.6
2020-Jul-07 06:21 180 15.6
2020-Jul-07 06:11 180 0 gusting 2 15.6
2020-Jul-07 06:01 180 0 gusting 3 15.6
2020-Jul-07 05:51 180 15.6
2020-Jul-07 05:41 158 15.6
2020-Jul-07 05:31 180 15.6
2020-Jul-07 05:21 180 15.6
2020-Jul-07 05:11 113 16.1
2020-Jul-07 05:01 202 16.1
2020-Jul-07 04:51 180 16.1
2020-Jul-07 04:41 131 16.7
2020-Jul-07 04:31 146 16.7
2020-Jul-07 04:21 112 17.2
2020-Jul-07 04:11 117 17.8
2020-Jul-07 03:51 180 17.8
2020-Jul-07 03:41 170 18.3
2020-Jul-07 03:31 143 18.9
2020-Jul-07 03:21 171 0 gusting 4 18.3
2020-Jul-07 03:11 162 18.9
2020-Jul-07 03:01 164 0 gusting 4 18.9
2020-Jul-07 02:51 185 1 gusting 4 19.4
2020-Jul-07 02:41 179 0 gusting 4 20.0
2020-Jul-07 02:31 179 1 gusting 3 21.1
2020-Jul-07 02:21 152 0 gusting 3 21.1
2020-Jul-07 02:11 174 1 gusting 5 21.1
2020-Jul-07 02:01 182 1 gusting 5 21.7
2020-Jul-07 01:51 179 1 gusting 6 21.7
2020-Jul-07 01:41 180 1 gusting 6 21.7
2020-Jul-07 01:31 195 1 gusting 6 21.7
2020-Jul-07 01:21 169 1 gusting 5 21.7
2020-Jul-07 01:11 172 1 gusting 4 21.7
2020-Jul-07 01:01 180 0 gusting 4 21.7
2020-Jul-07 00:51 197 1 gusting 4 22.2
2020-Jul-07 00:41 172 0 gusting 5 21.1
2020-Jul-07 00:31 187 1 gusting 5 21.7
2020-Jul-07 00:21 188 2 gusting 6 21.1
2020-Jul-07 00:11 165 1 gusting 6 21.7
2020-Jul-07 00:01 180 1 gusting 5 21.7
2020-Jul-06 23:51 171 1 gusting 5 21.1
2020-Jul-06 23:41 177 2 gusting 6 21.1
2020-Jul-06 23:31 164 2 gusting 6 21.1
2020-Jul-06 23:21 143 2 gusting 6 21.1
2020-Jul-06 23:11 177 1 gusting 4 20.0
2020-Jul-06 23:01 178 2 gusting 7 19.4
2020-Jul-06 22:51 163 2 gusting 7 21.1
2020-Jul-06 22:41 185 2 gusting 6 21.1
2020-Jul-06 22:31 143 2 gusting 9 20.6
2020-Jul-06 22:21 179 1 gusting 6 21.1
2020-Jul-06 22:11 163 1 gusting 6 21.1
2020-Jul-06 22:01 147 1 gusting 5 21.1
2020-Jul-06 21:51 199 1 gusting 4 21.1
2020-Jul-06 21:41 158 2 gusting 7 21.1
2020-Jul-06 21:31 163 2 gusting 6 22.2
2020-Jul-06 21:21 177 3 gusting 10 20.6
2020-Jul-06 21:11 182 2 gusting 6 21.1
2020-Jul-06 21:01 166 2 gusting 6 21.7
2020-Jul-06 20:51 184 2 gusting 8 21.7
2020-Jul-06 20:41 126 2 gusting 8 21.1
2020-Jul-06 20:31 112 2 gusting 9 21.1
2020-Jul-06 20:21 160 2 gusting 6 21.7
2020-Jul-06 20:11 164 2 gusting 6 21.1
2020-Jul-06 20:01 165 3 gusting 9 20.6
2020-Jul-06 19:51 183 2 gusting 6 21.7
2020-Jul-06 19:41 180 2 gusting 11 20.6
2020-Jul-06 19:31 173 2 gusting 8 21.1
2020-Jul-06 19:21 169 3 gusting 10 20.6
2020-Jul-06 19:11 136 1 gusting 5 21.1
2020-Jul-06 19:01 194 2 gusting 6 20.0
2020-Jul-06 18:51 155 2 gusting 7 20.0
2020-Jul-06 18:41 195 2 gusting 6 19.4
2020-Jul-06 18:31 181 2 gusting 10 20.0
2020-Jul-06 18:21 173 2 gusting 6 20.0
2020-Jul-06 18:11 156 1 gusting 12 20.0
2020-Jul-06 18:01 156 1 gusting 10 18.9
2020-Jul-06 17:51 174 1 gusting 5 19.4
2020-Jul-06 17:41 111 1 gusting 7 18.3
2020-Jul-06 17:31 125 1 gusting 6 18.9
2020-Jul-06 17:21 173 1 gusting 7 17.8
2020-Jul-06 17:11 183 1 gusting 6 17.8
2020-Jul-06 17:01 181 1 gusting 4 17.8
2020-Jul-06 16:51 178 1 gusting 5 17.2
2020-Jul-06 16:41 173 1 gusting 6 17.8
2020-Jul-06 16:31 111 1 gusting 5 17.8
2020-Jul-06 16:21 132 1 gusting 6 17.2
2020-Jul-06 16:11 158 1 gusting 6 16.1
2020-Jul-06 16:01 158 0 gusting 6 16.1
2020-Jul-06 15:51 162 0 gusting 4 15.0
2020-Jul-06 15:41 176 1 gusting 4 15.0
2020-Jul-06 15:31 156 1 gusting 6 15.0
2020-Jul-06 15:21 153 1 gusting 5 15.0
2020-Jul-06 15:11 112 0 gusting 6 14.4
2020-Jul-06 15:01 063 0 gusting 3 15.0
2020-Jul-06 14:51 114 0 gusting 3 15.0
2020-Jul-06 14:41 099 0 gusting 3 13.3
2020-Jul-06 14:31 129 13.3
2020-Jul-06 14:21 132 0 gusting 3 13.3
2020-Jul-06 14:11 103 13.3
2020-Jul-06 14:01 090 13.3
2020-Jul-06 13:51 090 13.3
2020-Jul-06 13:41 135 12.8
2020-Jul-06 13:31 151 0 gusting 2 12.2
2020-Jul-06 13:21 147 12.2
2020-Jul-06 13:11 180 12.2
2020-Jul-06 13:01 158 0 gusting 4 12.2
2020-Jul-06 12:51 180 0 gusting 2 12.2
2020-Jul-06 12:41 185 0 gusting 3 12.2
2020-Jul-06 12:31 184 0 gusting 3 11.7
2020-Jul-06 12:21 180 0 gusting 2 11.7
2020-Jul-06 12:11 180 11.7
2020-Jul-06 12:01 180 0 gusting 2 11.7
2020-Jul-06 11:51 180 0 gusting 2 11.7
2020-Jul-06 11:41 180 11.7
2020-Jul-06 11:31 180 11.1
2020-Jul-06 11:21 113 11.1
2020-Jul-06 11:11 158 11.1
2020-Jul-06 11:01 180 11.1
2020-Jul-06 10:51 158 11.1
2020-Jul-06 10:41 158 11.1
2020-Jul-06 10:31 158 11.7
2020-Jul-06 10:21 158 11.7
2020-Jul-06 10:11 158 11.7
2020-Jul-06 10:01 129 12.2
2020-Jul-06 09:51 166 12.2
2020-Jul-06 09:41 113 12.2
2020-Jul-06 09:31 175 12.2
2020-Jul-06 09:21 170 12.2
2020-Jul-06 09:11 174 12.2
2020-Jul-06 09:01 161 12.2
2020-Jul-06 08:51 180 12.2
2020-Jul-06 08:41 176 12.2
2020-Jul-06 08:31 180 12.8
2020-Jul-06 08:21 167 12.8
2020-Jul-06 08:11 167 12.8
2020-Jul-06 08:01 156 12.8
2020-Jul-06 07:51 137 12.8
2020-Jul-06 07:41 176 12.8
2020-Jul-06 07:31 168 12.8
2020-Jul-06 07:21 180 12.8
2020-Jul-06 07:11 180 12.8
2020-Jul-06 07:01 180 12.8
2020-Jul-06 06:51 180 12.8
2020-Jul-06 06:41 180 13.3
2020-Jul-06 06:31 180 13.3
2020-Jul-06 06:21 180 13.3
2020-Jul-06 06:11 180 13.3
2020-Jul-06 06:01 180 13.3
2020-Jul-06 05:51 180 13.3
2020-Jul-06 05:41 180 13.9
2020-Jul-06 05:31 180 13.9
2020-Jul-06 05:21 180 13.9
2020-Jul-06 05:11 180 14.4
2020-Jul-06 05:01 180 14.4
2020-Jul-06 04:51 180 15.0
2020-Jul-06 04:41 180 15.6
2020-Jul-06 04:31 180 16.1
2020-Jul-06 04:21 180 17.2
2020-Jul-06 04:11 180 17.8
2020-Jul-06 04:01 180 18.9